FW5863 Weather Reports


Display with metric or nautical units.
time (UTC)temp
F
wind
direction
speed
MPH
gust
MPH
rain 1hr
in
rain 24hr
in
rain mn
in
humidity
%
barometer
mb
20260903083958 65 50 2.0 4.0 0.04 0.33 0.27 99 1016.8
20260903083458 65 50 0.0 3.0 0.04 0.33 0.27 99 1016.6
20260903082959 65 50 0.0 0.0 0.04 0.33 0.27 99 1016.3
20260903082458 65 50 1.0 3.0 0.03 0.32 0.26 99 1016.3
20260903080459 65 50 2.0 5.0 0.07 0.30 0.24 99 1017.1
20260903075458 66 50 4.0 9.0 0.07 0.29 0.23 99 1017.6
20260903074958 66 50 3.0 9.0 0.07 0.29 0.23 99 1017.7
20260903074459 66 50 3.0 9.0 0.07 0.29 0.23 99 1017.7
20260903073958 66 50 2.0 4.0 0.07 0.29 0.23 99 1017.6
20260903073458 66 50 0.0 3.0 0.08 0.29 0.23 99 1017.6
20260903072959 66 50 0.0 2.0 0.08 0.29 0.23 99 1017.8
20260903072458 66 50 1.0 4.0 0.08 0.29 0.23 99 1017.7
20260903071958 66 50 2.0 10.0 0.08 0.29 0.23 99 1018.3
20260903071459 66 50 5.0 12.0 0.07 0.28 0.22 99 1018.2
20260903070958 66 50 4.0 12.0 0.03 0.24 0.18 99 1019.5
20260903070458 66 50 3.0 6.0 0.03 0.23 0.17 99 1018.7
20260903065959 66 50 1.0 5.0 0.04 0.23 0.17 99 1018.5
20260903065458 66 50 0.0 3.0 0.04 0.22 0.16 99 1017.9
20260903064958 66 50 1.0 4.0 0.04 0.22 0.16 99 1017.5
20260903063959 66 50 0.0 0.0 0.06 0.22 0.16 99 1017.6
20260903063458 66 50 0.0 0.0 0.06 0.21 0.15 99 1017.1
20260903062959 66 50 0.0 0.0 0.06 0.21 0.15 99 1017.1
20260903062459 66 50 0.0 0.0 0.07 0.21 0.15 99 1017.4
20260903060958 66 50 1.0 5.0 0.08 0.21 0.15 99 1017.9
20260903060458 66 50 1.0 5.0 0.07 0.20 0.14 99 1018.7
20260903055959 66 50 0.0 2.0 0.07 0.19 0.13 99 1018.5
20260903055458 66 50 1.0 3.0 0.07 0.18 0.12 99 1018.5
20260903054958 66 50 2.0 4.0 0.09 0.18 0.12 99 1018.3
20260903054459 66 50 2.0 4.0 0.09 0.17 0.11 99 1018.2
20260903052959 66 50 5.0 9.0 0.09 0.15 0.09 99 1017.4
20260903052458 66 50 5.0 9.0 0.08 0.14 0.08 99 1017.3
20260903051958 66 50 3.0 9.0 0.08 0.14 0.08 99 1017.6
20260903051459 66 50 1.0 4.0 0.07 0.13 0.07 98 1018.1
20260903050959 66 50 1.0 3.0 0.07 0.13 0.07 98 1018.8
20260903050458 66 50 1.0 4.0 0.07 0.13 0.07 98 1018.9
20260903045458 66 50 2.0 4.0 0.05 0.11 0.05 98 1019.4
20260903044958 66 50 2.0 4.0 0.03 0.09 0.03 98 1019.7
20260903044459 66 50 1.0 4.0 0.02 0.08 0.02 98 1019.7
20260903043958 66 50 1.0 4.0 0.01 0.07 0.01 98 1019.7
20260903042959 67 50 3.0 6.0 0.00 0.06 0.00 99 1018.6
20260903042458 0 0.0 0.0 0.00 0.06 0.00
20260903041459 0 0.0 0.0 0.00 0.06 0.00
20260903040458 0 0.0 0.0 0.00 0.06 0.00
20260903035459 67 50 1.0 5.0 0.12 0.18 0.18 99 1019.0
20260903034959 67 50 2.0 8.0 0.10 0.16 0.16 99 1019.1
20260903034459 68 50 3.0 8.0 0.08 0.14 0.14 99 1019.2
20260903033959 68 50 1.0 8.0 0.06 0.11 0.11 99 1019.9
20260903033459 68 50 0.0 3.0 0.04 0.09 0.09 99 1019.4
20260903032959 68 50 0.0 0.0 0.03 0.08 0.08 99 1019.2
20260903032459 68 50 0.0 0.0 0.02 0.07 0.07 99 1019.2
20260903031958 68 50 0.0 0.0 0.01 0.06 0.06 99 1019.2
20260903031459 68 50 0.0 0.0 0.01 0.06 0.06 99 1019.2
20260903030958 68 50 0.0 0.0 0.01 0.06 0.06 99 1019.2
20260903030459 68 50 0.0 0.0 0.01 0.06 0.06 99 1019.0
20260903025959 68 50 0.0 0.0 0.01 0.06 0.06 99 1019.0
20260903025459 68 50 1.0 5.0 0.01 0.06 0.06 99 1018.8
20260903024958 68 50 2.0 5.0 0.01 0.06 0.06 99 1018.7
20260903024459 68 50 1.0 5.0 0.01 0.06 0.06 99 1018.5
20260903023958 68 50 0.0 2.0 0.00 0.05 0.05 99 1019.1
20260903022459 67 50 1.0 4.0 0.00 0.05 0.05 99 1017.9
20260903021958 67 50 0.0 0.0 0.00 0.05 0.05 99 1018.6
20260903021459 67 50 0.0 0.0 0.00 0.05 0.05 99 1018.9
20260903020958 67 50 0.0 1.0 0.00 0.05 0.05 99 1018.9
20260903015959 67 50 1.0 4.0 0.00 0.05 0.05 98 1019.3
20260903015459 67 50 2.0 4.0 0.00 0.05 0.05 98 1019.4
20260903014958 67 50 2.0 4.0 0.00 0.05 0.05 98 1019.1
20260903014459 67 50 2.0 6.0 0.00 0.05 0.05 98 1018.8
20260903013958 67 50 3.0 6.0 0.00 0.05 0.05 98 1018.6
20260903013459 67 50 1.0 6.0 0.00 0.05 0.05 98 1018.6
20260903012959 67 50 0.0 5.0 0.00 0.05 0.05 98 1018.6
20260903012500 67 50 1.0 4.0 0.00 0.05 0.05 98 1018.6
20260903011958 67 50 2.0 4.0 0.00 0.05 0.05 98 1018.7
20260903011459 67 50 2.0 5.0 0.00 0.05 0.05 98 1018.5
20260903010958 67 50 2.0 5.0 0.00 0.05 0.05 98 1018.3
20260903005958 67 50 3.0 6.0 0.00 0.07 0.05 98 1018.4
20260903004958 67 50 1.0 6.0 0.00 0.07 0.05 98 1018.5
20260903003959 67 50 1.0 6.0 0.00 0.07 0.05 98 1019.0
20260903003458 67 50 1.0 4.0 0.00 0.07 0.05 98 1019.0
20260903002959 67 50 2.0 6.0 0.00 0.07 0.05 98 1019.0
20260903002458 68 50 2.0 6.0 0.00 0.07 0.05 98 1018.8
20260903001958 68 50 3.0 6.0 0.00 0.07 0.05 98 1018.8
20260903001459 68 50 3.0 6.0 0.00 0.07 0.05 98 1018.8
20260903000958 68 50 3.0 5.0 0.00 0.07 0.05 98 1018.9
20260903000459 68 50 3.0 6.0 0.00 0.07 0.05 98 1018.8
20260902235959 68 50 3.0 6.0 0.00 0.07 0.05 98 1018.4
20260902235459 68 50 4.0 6.0 0.00 0.07 0.05 98 1018.3
20260902234959 68 50 3.0 8.0 0.00 0.07 0.05 98 1018.1
20260902234459 68 50 2.0 8.0 0.00 0.07 0.05 98 1018.2
20260902233959 68 50 2.0 6.0 0.00 0.07 0.05 98 1018.2
20260902233459 68 50 3.0 6.0 0.00 0.07 0.05 98 1018.3
20260902232959 69 50 2.0 6.0 0.00 0.07 0.05 98 1018.2
20260902232458 69 50 2.0 5.0 0.00 0.07 0.05 98 1018.3
20260902231958 69 50 3.0 5.0 0.00 0.07 0.05 98 1018.3
20260902230959 69 50 2.0 8.0 0.00 0.07 0.05 98 1018.1
20260902230458 69 50 3.0 6.0 0.00 0.07 0.05 98 1018.1
20260902225959 69 50 4.0 6.0 0.00 0.07 0.05 98 1018.1
20260902225458 69 50 3.0 8.0 0.00 0.07 0.05 98 1018.2
20260902224959 69 50 3.0 8.0 0.00 0.07 0.05 98 1018.2
20260902224459 69 50 3.0 5.0 0.00 0.07 0.05 98 1018.3
20260902223958 69 50 3.0 5.0 0.00 0.07 0.05 98 1018.4
20260902223500 69 50 3.0 6.0 0.00 0.07 0.05 98 1018.5
20260902222959 69 50 4.0 8.0 0.00 0.07 0.05 98 1018.5
20260902222459 69 50 5.0 9.0 0.00 0.07 0.05 98 1018.5
20260902221959 69 50 4.0 9.0 0.00 0.07 0.05 97 1018.6
20260902221459 69 50 3.0 8.0 0.00 0.07 0.05 98 1018.7
20260902220958 69 50 3.0 8.0 0.00 0.07 0.05 98 1018.9
20260902220458 69 50 3.0 6.0 0.00 0.07 0.05 97 1019.0
20260902220000 70 50 3.0 5.0 0.00 0.07 0.05 98 1019.0
20260902215458 70 50 3.0 5.0 0.00 0.07 0.05 97 1019.2
20260902214959 70 50 3.0 6.0 0.00 0.07 0.05 97 1019.1
20260902213958 70 50 3.0 6.0 0.00 0.07 0.05 97 1019.1
20260902213459 70 50 3.0 5.0 0.00 0.07 0.05 97 1019.0
20260902212959 70 50 3.0 6.0 0.00 0.07 0.05 97 1018.9
20260902212458 70 50 2.0 6.0 0.00 0.07 0.05 97 1018.8
20260902211958 70 50 2.0 6.0 0.00 0.07 0.05 98 1018.8
20260902211459 70 50 2.0 6.0 0.00 0.07 0.05 97 1018.8
20260902210959 70 50 2.0 4.0 0.00 0.07 0.05 97 1018.9
20260902205959 70 50 2.0 5.0 0.00 0.07 0.05 97 1018.9
20260902205459 70 50 3.0 6.0 0.00 0.07 0.05 97 1018.8
20260902204958 70 50 3.0 6.0 0.00 0.07 0.05 97 1018.7
20260902204459 70 50 3.0 6.0 0.00 0.07 0.05 97 1018.6
20260902203958 70 50 3.0 6.0 0.00 0.07 0.05 97 1018.5
20260902202959 70 50 3.0 9.0 0.00 0.07 0.05 98 1018.4
20260902202458 70 50 3.0 9.0 0.00 0.07 0.05 98 1018.5
20260902201459 70 50 3.0 6.0 0.00 0.07 0.05 98 1018.5
20260902200959 70 50 3.0 6.0 0.00 0.07 0.05 98 1018.7
20260902200458 69 50 3.0 5.0 0.00 0.07 0.05 98 1018.9
20260902194958 70 50 2.0 4.0 0.00 0.07 0.05 98 1019.0
20260902194459 70 50 1.0 4.0 0.00 0.07 0.05 98 1019.1
20260902193958 70 50 1.0 5.0 0.00 0.07 0.05 98 1019.3
20260902193458 70 50 2.0 5.0 0.00 0.07 0.05 98 1019.2
20260902192959 70 50 2.0 5.0 0.00 0.07 0.05 98 1019.1
20260902192459 70 50 2.0 6.0 0.00 0.07 0.05 98 1019.1
20260902191959 70 50 4.0 9.0 0.00 0.07 0.05 98 1019.0
20260902191459 70 50 4.0 9.0 0.00 0.07 0.05 98 1018.8
20260902190958 70 50 3.0 9.0 0.00 0.07 0.05 98 1018.8
20260902190459 70 50 3.0 8.0 0.00 0.07 0.05 98 1018.9
20260902185959 70 50 4.0 8.0 0.00 0.07 0.05 98 1018.9
20260902184959 70 50 3.0 8.0 0.00 0.07 0.05 98 1018.9
20260902184459 70 50 2.0 5.0 0.00 0.07 0.05 98 1019.1
20260902183958 70 50 2.0 4.0 0.00 0.07 0.05 98 1019.2
20260902183458 70 50 3.0 6.0 0.00 0.07 0.05 98 1019.3
20260902182959 69 50 3.0 8.0 0.00 0.07 0.05 98 1019.5
20260902181958 69 50 2.0 6.0 0.01 0.07 0.05 98 1019.8
20260902180958 69 50 0.0 4.0 0.02 0.07 0.05 98 1020.1
20260902180459 69 50 0.0 0.0 0.02 0.07 0.05 98 1020.2
20260902175959 69 50 0.0 0.0 0.03 0.07 0.05 98 1020.2
20260902175458 69 50 1.0 2.0 0.03 0.07 0.05 98 1020.4
20260902174500 69 50 0.0 4.0 0.04 0.07 0.05 98 1020.4
20260902173458 69 50 1.0 4.0 0.05 0.07 0.05 98 1020.3
20260902172959 69 50 1.0 4.0 0.05 0.07 0.05 98 1020.2
20260902172458 69 50 0.0 2.0 0.04 0.06 0.04 98 1020.2
20260902172001 69 50 0.0 0.0 0.04 0.06 0.04 98 1020.4
20260902171459 68 50 1.0 4.0 0.04 0.06 0.04 98 1020.5
20260902170958 68 50 1.0 4.0 0.03 0.05 0.03 98 1020.4
20260902165959 68 50 1.0 5.0 0.02 0.04 0.02 98 1020.5
20260902165459 68 50 2.0 5.0 0.02 0.04 0.02 98 1020.5
20260902164958 68 50 3.0 9.0 0.01 0.03 0.01 98 1020.5
20260902164459 69 50 5.0 9.0 0.01 0.03 0.01 98 1020.4
20260902163958 69 50 5.0 11.0 0.01 0.03 0.01 98 1019.9
20260902163458 69 50 4.0 11.0 0.00 0.02 0.00 98 1020.1
20260902163000 69 50 3.0 6.0 0.00 0.02 0.00 98 1020.2
20260902162458 69 50 2.0 4.0 0.00 0.02 0.00 98 1020.5
20260902161958 69 50 2.0 5.0 0.00 0.02 0.00 99 1020.5
20260902161459 69 50 1.0 5.0 0.00 0.02 0.00 98 1020.5
20260902160958 69 50 0.0 4.0 0.00 0.02 0.00 99 1020.7
20260902160458 69 50 0.0 3.0 0.00 0.02 0.00 99 1020.8
20260902155959 69 50 1.0 4.0 0.00 0.02 0.00 99 1020.7
20260902155458 69 50 1.0 4.0 0.00 0.02 0.00 98 1020.7
20260902154958 69 50 0.0 2.0 0.00 0.02 0.00 99 1020.7
20260902154459 69 50 1.0 3.0 0.00 0.02 0.00 99 1020.7
20260902153958 69 50 2.0 5.0 0.00 0.02 0.00 99 1020.7
20260902153458 68 50 3.0 6.0 0.00 0.02 0.00 99 1020.5
20260902152959 68 50 3.0 6.0 0.00 0.02 0.00 99 1020.5
20260902152458 68 50 2.0 5.0 0.00 0.02 0.00 99 1020.5
20260902151958 68 50 2.0 5.0 0.00 0.02 0.00 99 1020.4
20260902151459 68 50 2.0 5.0 0.00 0.02 0.00 99 1020.3
20260902150958 68 50 2.0 5.0 0.00 0.02 0.00 99 1020.3
20260902150459 68 50 1.0 5.0 0.00 0.02 0.00 99 1020.5
20260902145959 68 50 0.0 3.0 0.00 0.02 0.00 99 1020.5
20260902144958 68 50 1.0 4.0 0.00 0.02 0.00 99 1020.5
20260902144459 68 50 2.0 5.0 0.00 0.02 0.00 99 1020.4
20260902143958 68 50 1.0 5.0 0.00 0.02 0.00 99 1020.3
20260902143458 68 50 2.0 4.0 0.00 0.02 0.00 99 1020.3
20260902142959 68 50 2.0 5.0 0.00 0.02 0.00 99 1020.4
20260902142458 68 50 1.0 5.0 0.00 0.02 0.00 99 1020.5
20260902141959 68 50 1.0 3.0 0.00 0.02 0.00 99 1020.5
20260902141459 68 50 2.0 4.0 0.00 0.02 0.00 99 1020.6
20260902140958 68 50 3.0 5.0 0.00 0.02 0.00 98 1020.7
20260902140458 68 50 2.0 5.0 0.00 0.02 0.00 99 1020.6
20260902135959 68 50 2.0 5.0 0.00 0.02 0.00 99 1020.6
20260902135458 68 50 2.0 4.0 0.00 0.02 0.00 99 1020.5
20260902134459 68 50 2.0 5.0 0.00 0.02 0.00 99 1020.3
20260902133958 68 50 2.0 4.0 0.00 0.02 0.00 99 1020.2
20260902133458 68 50 3.0 6.0 0.00 0.02 0.00 99 1020.2
20260902132959 67 50 2.0 6.0 0.00 0.02 0.00 99 1020.1
20260902132459 67 50 2.0 5.0 0.00 0.02 0.00 99 1020.1
20260902131958 67 50 2.0 5.0 0.00 0.02 0.00 99 1020.0
20260902131459 67 50 2.0 5.0 0.00 0.02 0.00 99 1020.0
20260902130958 67 50 3.0 6.0 0.00 0.02 0.00 98 1020.0
20260902130458 67 50 3.0 6.0 0.00 0.02 0.00 98 1020.1
20260902125458 67 50 3.0 6.0 0.00 0.02 0.00 99 1019.9
20260902124958 67 50 3.0 6.0 0.00 0.02 0.00 99 1019.8
20260902124459 67 50 3.0 5.0 0.00 0.02 0.00 99 1019.7
20260902123958 67 50 3.0 5.0 0.00 0.02 0.00 99 1019.7
20260902122959 67 50 2.0 9.0 0.00 0.02 0.00 99 1019.8
20260902121459 67 50 4.0 8.0 0.00 0.02 0.00 99 1019.8
20260902120958 67 50 5.0 11.0 0.00 0.02 0.00 99 1019.6
20260902120458 67 50 5.0 11.0 0.00 0.02 0.00 99 1019.5
20260902115959 0 0.0 0.0 0.00 0.02 0.00 1019.5
20260902115458 0 0.0 0.0 0.00 0.02 0.00 1019.5
20260902114958 0 0.0 0.0 0.00 0.02 0.00 1019.6
20260902114459 0 0.0 0.0 0.00 0.02 0.00 1019.5
20260902113958 0 0.0 0.0 0.00 0.02 0.00 1019.5
20260902112959 0 0.0 0.0 0.00 0.02 0.00 1019.4
20260902112458 0 0.0 0.0 0.00 0.02 0.00 1019.4
20260902111958 0 0.0 0.0 0.00 0.02 0.00 1019.4
20260902111459 0 0.0 0.0 0.00 0.02 0.00 1019.4
20260902110958 0 0.0 0.0 0.00 0.02 0.00 1019.3
20260902110458 0 0.0 0.0 0.00 0.02 0.00 1019.3
20260902105959 0 0.0 0.0 0.00 0.02 0.00 1019.3
20260902104958 0 0.0 0.0 0.00 0.02 0.00 1019.2
20260902104459 0 0.0 0.0 0.00 0.02 0.00 1019.3
20260902103458 0 0.0 0.0 0.00 0.02 0.00 1019.3
20260902103000 0 0.0 0.0 0.00 0.02 0.00 1019.2
20260902102458 0 0.0 0.0 0.00 0.02 0.00 1019.2
20260902101958 0 0.0 0.0 0.00 0.02 0.00 1019.1
20260902101459 0 0.0 0.0 0.00 0.02 0.00 1019.1
20260902100958 0 0.0 0.0 0.00 0.02 0.00 1019.1
20260902100458 0 0.0 0.0 0.00 0.02 0.00 1019.0
20260902095959 0 0.0 0.0 0.00 0.02 0.00 1018.9
20260902095458 0 0.0 0.0 0.00 0.02 0.00 1018.9
20260902094958 0 0.0 0.0 0.00 0.02 0.00 1018.8
20260902094459 0 0.0 0.0 0.00 0.02 0.00 1018.8
20260902093958 0 0.0 0.0 0.00 0.02 0.00 1018.9
20260902093458 0 0.0 0.0 0.00 0.02 0.00 1019.0
20260902092959 0 0.0 0.0 0.00 0.02 0.00 1018.9
20260902092458 0 0.0 0.0 0.00 0.02 0.00 1018.9
20260902091958 0 0.0 0.0 0.00 0.02 0.00 1018.7
20260902090958 69 50 4.0 9.0 0.00 0.02 0.00 98 1018.6
20260902090458 69 50 4.0 9.0 0.00 0.02 0.00 98 1018.6
20260902085959 70 50 4.0 9.0 0.00 0.02 0.00 98 1018.7
20260902085508 70 50 3.0 9.0 0.00 0.02 0.00 98 1018.6
20260902084958 70 50 2.0 5.0 0.00 0.02 0.00 98 1018.6
20260902084459 70 50 1.0 5.0 0.00 0.02 0.00 99 1018.4